STAR ONE C4 (40733 NORAD) Tracking and Keplerian Element Data

This shows tracking and keplerian element data for the satellite.

Feedback or suggestion? Click here.




ElementValue
Catalog40733
NameSTAR ONE C4
Epoch Orbit1223
Epoch Day317.04962067
Epoch Year2018
RAAN82.4961
Inclination0.0551
Eccentricity0.0001624
Argument of Perigee187.9028
Mean Anonmoly89.6099
Mean Motion1.00269276
Decay Rate-2.66E-06
L11 40733U 15034B 18317.04962067 -.00000266 00000-0 00000-0 0 9999
L22 40733 0.0551 82.4961 0001624 187.9028 89.6099 1.00269276 12230

Live tracking and technical data element details for STAR ONE C4 (NORAD 40733). STAR ONE C4 can be tracked NOW for your location showing map with azimuth and elevation plus other details from your city location.

Track the satellite on the map from your city or location and see movement details for azimuth, elevation, latitude, longitude, range, height, and movement on the map or in text.







IsCatalogInMostPopularTable: catalog: 40733, numindb: 201
Update: records affected: 1



GetName: 40733 STAR ONE C4

Hit Count: updated at: Wed, 14 Nov 2018 15:20:51 GMT